Roswell, NM

3:28 PM MDT on April 25, 2018 (GMT -0600)
Roswell Industrial

Weather History for KROW - January, 2014

Change the Weather History Date:

Sunday, January 26, 2014

  Actual Average Record
Temperature  
Mean Temperature 49 °F 42 °F  
Max Temperature 72 °F 57 °F 82 °F (1975)
Min Temperature 26 °F 27 °F 5 °F (1966)
Degree Days  
Heating Degree Days 16 23  
Month to date heating degree days 631 643  
Since 1 July heating degree days 2077 2053  
Cooling Degree Days 0 0  
Month to date cooling degree days 0 0  
Year to date cooling degree days 0 0  
Moisture  
Dew Point 6 °F    
Average Humidity 28    
Maximum Humidity 50    
Minimum Humidity 6    
Precipitation  
Precipitation 0.00 in 0.02 in 0.41 in (1949)
Month to date precipitation 0.00 0.32  
Year to date precipitation 0.00 0.32  
Sea Level Pressure  
Sea Level Pressure 29.82 in    
Wind  
Wind Speed 7 mph (West)    
Max Wind Speed 21 mph    
Max Gust Speed 27 mph    
Visibility 10 miles    
Events      
T = Trace of Precipitation, MM = Missing Value Source: NWS Daily Summary

Daily Weather History Graph

Daily Weather History Graph

Search for Another Location

Airport or City:

Astronomy

Jan. 26, 2014 Rise Set
Actual Time 6:57 AM MST 5:24 PM MST
Civil Twilight 6:31 AM MST 5:50 PM MST
Nautical Twilight 6:01 AM MST 6:20 PM MST
Astronomical Twilight 5:31 AM MST 6:49 PM MST
Moon 2:36 AM MST (1/26) 1:17 PM MST (1/26)
Length of Visible Light 11h 19m
Length of Day
10h 26m
Waning Crescent, 23% of the Moon is Illuminated
Jan 26
Waning Crescent
Jan 30
New
Feb 6
First Quarter
Feb 14
Full
Feb 22
Last Quarter

Hourly Weather History & Observations

Time (MST) Temp. Windchill Dew Point Humidity Pressure Visibility Wind Dir Wind Speed Gust Speed Precip Events Conditions
12:51 AM 28.0 °F 22.8 °F 8.1 °F 43% 29.88 in 10.0 mi South 4.6 mph - N/A   Clear
1:51 AM 28.9 °F 23.9 °F 9.0 °F 43% 29.86 in 10.0 mi South 4.6 mph - N/A   Clear
2:51 AM 30.9 °F 27.5 °F 10.0 °F 42% 29.84 in 10.0 mi South 3.5 mph - N/A   Clear
3:51 AM 28.0 °F 24.2 °F 10.9 °F 49% 29.84 in 10.0 mi SW 3.5 mph - N/A   Clear
4:51 AM 28.0 °F 24.2 °F 10.9 °F 49% 29.84 in 10.0 mi NE 3.5 mph - N/A   Clear
5:51 AM 27.0 °F 21.6 °F 10.0 °F 49% 29.88 in 10.0 mi SE 4.6 mph - N/A   Clear
6:51 AM 32.0 °F - 10.9 °F 42% 29.90 in 10.0 mi Calm Calm - N/A   Clear
7:51 AM 36.0 °F 31.1 °F 10.9 °F 36% 29.91 in 10.0 mi SSW 5.8 mph - N/A   Clear
8:51 AM 48.0 °F - 12.0 °F 24% 29.91 in 10.0 mi Calm Calm - N/A   Clear
9:51 AM 64.0 °F - 1.9 °F 8% 29.88 in 10.0 mi NNW 12.7 mph - N/A   Clear
10:51 AM 66.0 °F - 6.1 °F 9% 29.85 in 10.0 mi North 18.4 mph - N/A   Clear
11:51 AM 66.0 °F - 7.0 °F 10% 29.84 in 10.0 mi North 11.5 mph - N/A   Clear
12:51 PM 68.0 °F - 10.0 °F 11% 29.81 in 10.0 mi North 6.9 mph - N/A   Clear
1:51 PM 69.1 °F - 5.0 °F 8% 29.76 in 10.0 mi Variable 4.6 mph - N/A   Clear
2:51 PM 71.1 °F - 5.0 °F 8% 29.73 in 10.0 mi NW 5.8 mph - N/A   Clear
3:51 PM 72.0 °F - 1.9 °F 6% 29.72 in 10.0 mi NW 13.8 mph 23.0 mph N/A   Clear
4:51 PM 68.0 °F - -0.9 °F 6% 29.74 in 10.0 mi WNW 11.5 mph - N/A   Clear
5:51 PM 61.0 °F - -4.0 °F 7% 29.77 in 10.0 mi WNW 9.2 mph - N/A   Clear
6:51 PM 60.1 °F - 3.0 °F 10% 29.79 in 10.0 mi WNW 13.8 mph - N/A   Clear
7:51 PM 55.0 °F - 5.0 °F 13% 29.79 in 10.0 mi West 15.0 mph - N/A   Clear
8:51 PM 42.1 °F 35.7 °F 3.9 °F 21% 29.81 in 10.0 mi SSW 11.5 mph - N/A   Clear
9:51 PM 44.1 °F 39.0 °F 7.0 °F 22% 29.77 in 10.0 mi West 9.2 mph - N/A   Clear
10:51 PM 39.9 °F 37.8 °F 5.0 °F 23% 29.79 in 10.0 mi SW 3.5 mph - N/A   Clear
11:51 PM 37.9 °F - 6.1 °F 27% 29.80 in 10.0 mi Calm Calm - N/A   Clear